EW5860 Weather Reports


time (UTC)temp
F
wind
direction
speed
knots
gust
knots
rain 1hr
in
rain 24hr
in
rain mn
in
humidity
%
barometer
mb
20260505063039 62 217 4.3 10.4 0.00 0.00 0.00 64 1009.7
20260505061537 62 207 7.8 12.2 0.00 0.00 0.00 63 1009.7
20260505060037 62 185 6.1 10.4 0.00 0.00 0.00 62 1009.8
20260505054531 62 213 2.6 12.2 0.00 0.00 0.00 61 1009.7
20260505053034 62 204 5.2 9.6 0.00 0.00 0.00 61 1009.7
20260505051528 62 187 4.3 10.4 0.00 0.00 0.00 59 1009.7
20260505041518 62 229 2.6 7.8 0.00 0.00 0.00 55 1009.8
20260505040016 63 161 1.7 7.0 0.00 0.00 0.00 53 1009.6
20260505034515 63 211 2.6 7.0 0.00 0.00 0.00 52 1009.5
20260505033017 63 216 1.7 6.1 0.00 0.00 0.00 52 1009.5
20260505031514 63 193 2.6 6.1 0.00 0.00 0.00 51 1009.5
20260505030014 63 194 1.7 7.8 0.00 0.00 0.00 51 1009.7
20260505024513 63 216 0.9 9.6 0.00 0.00 0.00 51 1009.7
20260505023013 64 198 0.9 4.3 0.00 0.00 0.00 50 1009.7
20260505021514 64 148 2.6 7.8 0.00 0.00 0.00 49 1009.9
20260505020016 64 242 1.7 6.1 0.00 0.00 0.00 49 1010.0
20260505014515 64 173 1.7 4.3 0.00 0.00 0.00 49 1009.9
20260505013011 64 219 1.7 5.2 0.00 0.00 0.00 49 1009.8
20260505011509 64 174 0.9 5.2 0.00 0.00 0.00 50 1009.7
20260505010010 65 225 0.9 3.5 0.00 0.00 0.00 48 1009.6
20260505004515 65 236 1.7 4.3 0.00 0.00 0.00 46 1009.4
20260505003009 66 208 0.9 4.3 0.00 0.00 0.00 44 1009.3
20260505001508 67 211 1.7 6.1 0.00 0.00 0.00 43 1009.3
20260505000011 68 225 3.5 7.0 0.00 0.00 0.00 42 1009.2
20260504234507 68 145 2.6 7.8 0.00 0.00 0.00 41 1009.1
20260504233007 69 192 2.6 8.7 0.00 0.00 0.00 40 1009.1
20260504231506 70 223 2.6 13.0 0.00 0.00 0.00 39 1009.0
20260504230006 70 178 3.5 7.8 0.00 0.00 0.00 38 1009.0
20260504224505 71 67 3.5 12.2 0.00 0.00 0.00 38 1009.0
20260504223005 71 186 3.5 11.3 0.00 0.00 0.00 38 1009.1
20260504221504 72 121 4.3 10.4 0.00 0.00 0.00 37 1009.1
20260504220003 72 247 4.3 10.4 0.00 0.00 0.00 37 1009.2
20260504214503 72 219 3.5 12.2 0.00 0.00 0.00 37 1009.2
20260504213002 72 190 3.5 11.3 0.00 0.00 0.00 37 1009.2
20260504211506 72 177 6.1 13.0 0.00 0.00 0.00 37 1009.2
20260504210001 73 224 0.9 8.7 0.00 0.00 0.00 38 1009.2
20260504204627 73 221 2.6 8.7 0.00 0.00 0.00 39 1009.1
20260504203135 72 198 4.3 7.8 0.00 0.00 0.00 37 1009.2
20260504201557 72 167 6.1 13.9 0.00 0.00 0.00 37 1009.5
20260504200055 72 173 3.5 11.3 0.00 0.00 0.00 37 1009.6
20260504194553 72 217 6.1 11.3 0.00 0.00 0.00 36 1009.7
20260504193052 71 178 2.6 10.4 0.00 0.00 0.00 37 1010.0
20260504191553 71 282 4.3 10.4 0.00 0.00 0.00 37 1010.1
20260504190052 71 211 3.5 17.4 0.00 0.00 0.00 37 1010.2
20260504184544 70 152 2.6 11.3 0.00 0.00 0.00 40 1010.5
20260504183042 70 189 4.3 8.7 0.00 0.00 0.00 40 1010.6
20260504181540 69 254 7.0 13.0 0.00 0.00 0.00 38 1011.0
20260504180038 69 88 2.6 10.4 0.00 0.00 0.00 37 1011.2
20260504174538 69 253 3.5 12.2 0.00 0.00 0.00 40 1011.4
20260504173039 68 152 5.2 10.4 0.00 0.00 0.00 38 1011.5
20260504171532 68 184 3.5 12.2 0.00 0.00 0.00 41 1011.8
20260504081512 49 200 3.5 7.0 0.00 0.00 0.00 51 1014.4